Time,TemperatureF,DewpointF,PressureIn,WindDirection,WindDirectionDegrees,WindSpeedMPH,WindSpeedGustMPH,Humidity,HourlyPrecipIn,Conditions,Clouds,dailyrainin,SoftwareType,DateUTC
2013-02-16 00:00:00,41.4,34.4,29.97,NNW,344,0.0,0.0,76,0.00,,,0.00,Wunderground v.1.15,2013-02-16 05:00:00,
2013-02-16 00:05:00,41.3,34.3,29.97,NNW,344,0.0,0.0,76,0.00,,,0.00,Wunderground v.1.15,2013-02-16 05:05:00,
2013-02-16 00:10:00,41.2,34.2,29.97,NNW,344,0.0,0.0,76,0.00,,,0.00,Wunderground v.1.15,2013-02-16 05:10:00,
2013-02-16 00:20:00,41.1,34.8,29.97,NNW,344,0.0,0.0,78,0.00,,,0.00,Wunderground v.1.15,2013-02-16 05:20:00,
2013-02-16 00:25:00,41.1,35.4,29.98,NNW,344,0.0,0.0,80,0.00,,,0.00,Wunderground v.1.15,2013-02-16 05:25:00,
2013-02-16 00:30:00,41.0,35.3,29.98,NNW,344,0.0,0.0,80,0.00,,,0.00,Wunderground v.1.15,2013-02-16 05:30:00,
2013-02-16 00:35:00,41.0,34.7,29.98,NNW,344,0.0,0.0,78,0.00,,,0.00,Wunderground v.1.15,2013-02-16 05:35:00,
2013-02-16 00:40:00,41.0,35.0,29.97,NNW,344,0.0,0.0,79,0.00,,,0.00,Wunderground v.1.15,2013-02-16 05:40:00,
2013-02-16 00:50:00,40.9,34.6,29.97,NNW,344,0.0,0.0,78,0.00,,,0.00,Wunderground v.1.15,2013-02-16 05:50:00,
2013-02-16 01:00:00,40.7,34.7,29.97,NNW,345,0.0,0.0,79,0.00,,,0.00,Wunderground v.1.15,2013-02-16 06:00:00,
2013-02-16 01:05:00,40.7,34.7,29.96,NNW,344,0.0,0.0,79,0.00,,,0.00,Wunderground v.1.15,2013-02-16 06:05:00,
2013-02-16 01:15:00,40.4,35.3,29.96,NNW,345,0.0,0.0,82,0.00,,,0.00,Wunderground v.1.15,2013-02-16 06:15:00,
2013-02-16 01:20:00,40.2,35.4,29.96,NNW,345,0.0,0.0,83,0.00,,,0.00,Wunderground v.1.15,2013-02-16 06:20:00,
2013-02-16 01:25:00,40.2,35.4,29.96,NNW,345,0.0,0.0,83,0.00,,,0.00,Wunderground v.1.15,2013-02-16 06:25:00,
2013-02-16 01:35:00,40.0,35.9,29.96,NNW,345,0.0,0.0,85,0.00,,,0.00,Wunderground v.1.15,2013-02-16 06:35:00,
2013-02-16 01:40:00,39.8,36.0,29.97,NNW,345,0.0,0.0,86,0.00,,,0.00,Wunderground v.1.15,2013-02-16 06:40:00,
2013-02-16 01:50:00,39.6,36.0,29.96,NNW,345,0.0,0.0,87,0.00,,,0.00,Wunderground v.1.15,2013-02-16 06:50:00,
2013-02-16 02:00:00,39.6,36.0,29.96,NNW,345,0.0,0.0,87,0.00,,,0.00,Wunderground v.1.15,2013-02-16 07:00:00,
2013-02-16 02:05:00,39.6,36.3,29.96,NNW,345,0.0,0.0,88,0.00,,,0.00,Wunderground v.1.15,2013-02-16 07:05:00,
2013-02-16 02:15:00,39.5,36.2,29.96,NNW,345,0.0,0.0,88,0.00,,,0.00,Wunderground v.1.15,2013-02-16 07:15:00,
2013-02-16 02:20:00,39.4,36.1,29.95,NNW,345,0.0,0.0,88,0.00,,,0.00,Wunderground v.1.15,2013-02-16 07:20:00,
2013-02-16 02:25:00,39.3,36.3,29.95,NNW,345,0.0,0.0,89,0.00,,,0.00,Wunderground v.1.15,2013-02-16 07:25:00,
2013-02-16 02:35:00,39.2,36.2,29.95,NNW,345,0.0,0.0,89,0.00,,,0.00,Wunderground v.1.15,2013-02-16 07:35:00,
2013-02-16 02:40:00,39.1,36.1,29.95,NNW,345,0.0,0.0,89,0.00,,,0.00,Wunderground v.1.15,2013-02-16 07:40:00,
2013-02-16 02:50:00,38.9,36.2,29.95,NNW,345,0.0,0.0,90,0.00,,,0.00,Wunderground v.1.15,2013-02-16 07:50:00,
2013-02-16 02:55:00,38.8,36.1,29.95,NNW,345,0.0,0.0,90,0.00,,,0.00,Wunderground v.1.15,2013-02-16 07:55:00,
2013-02-16 03:05:00,38.6,36.2,29.94,NNW,345,0.0,0.0,91,0.00,,,0.00,Wunderground v.1.15,2013-02-16 08:05:00,
2013-02-16 03:15:00,38.3,35.6,29.94,NNW,345,0.0,0.0,90,0.00,,,0.00,Wunderground v.1.15,2013-02-16 08:15:00,
2013-02-16 03:25:00,38.1,35.4,29.94,NNW,345,0.0,0.0,90,0.00,,,0.00,Wunderground v.1.15,2013-02-16 08:25:00,
2013-02-16 03:30:00,38.0,35.3,29.94,NNW,345,0.0,0.0,90,0.00,,,0.00,Wunderground v.1.15,2013-02-16 08:30:00,
2013-02-16 03:40:00,37.8,35.1,29.93,NNW,345,0.0,0.0,90,0.00,,,0.00,Wunderground v.1.15,2013-02-16 08:40:00,
2013-02-16 03:45:00,37.8,35.1,29.93,NNW,345,0.0,0.0,90,0.00,,,0.00,Wunderground v.1.15,2013-02-16 08:45:00,
2013-02-16 03:55:00,37.5,35.1,29.93,NNW,345,0.0,0.0,91,0.00,,,0.00,Wunderground v.1.15,2013-02-16 08:55:00,
2013-02-16 04:00:00,37.4,35.0,29.93,NNW,345,0.0,0.0,91,0.00,,,0.00,Wunderground v.1.15,2013-02-16 09:00:00,
2013-02-16 04:05:00,37.3,34.9,29.94,NNW,345,0.0,0.0,91,0.00,,,0.00,Wunderground v.1.15,2013-02-16 09:05:00,
2013-02-16 04:15:00,37.3,34.9,29.93,NNW,345,0.0,0.0,91,0.00,,,0.00,Wunderground v.1.15,2013-02-16 09:15:00,
2013-02-16 04:25:00,37.3,34.9,29.94,NNW,345,0.0,0.0,91,0.00,,,0.00,Wunderground v.1.15,2013-02-16 09:25:00,
2013-02-16 04:30:00,37.3,34.9,29.94,NNW,345,0.0,0.0,91,0.00,,,0.00,Wunderground v.1.15,2013-02-16 09:30:00,
2013-02-16 04:40:00,37.3,34.9,29.94,NNW,345,0.0,0.0,91,0.00,,,0.00,Wunderground v.1.15,2013-02-16 09:40:00,
2013-02-16 04:45:00,37.3,34.9,29.94,NNW,345,0.0,0.0,91,0.00,,,0.00,Wunderground v.1.15,2013-02-16 09:45:00,
2013-02-16 04:55:00,37.3,34.9,29.94,NNW,345,0.0,0.0,91,0.00,,,0.00,Wunderground v.1.15,2013-02-16 09:55:00,
2013-02-16 05:05:00,37.2,34.8,29.94,NNW,345,0.0,0.0,91,0.00,,,0.00,Wunderground v.1.15,2013-02-16 10:05:00,
2013-02-16 05:15:00,37.1,34.7,29.94,NNW,345,0.0,0.0,91,0.00,,,0.00,Wunderground v.1.15,2013-02-16 10:15:00,
2013-02-16 05:25:00,37.0,34.6,29.94,NNW,345,0.0,0.0,91,0.00,,,0.00,Wunderground v.1.15,2013-02-16 10:25:00,
2013-02-16 05:30:00,37.0,34.9,29.94,NNW,345,0.0,0.0,92,0.00,,,0.00,Wunderground v.1.15,2013-02-16 10:30:00,
2013-02-16 05:40:00,36.9,34.8,29.94,ENE,75,0.0,0.0,92,0.00,,,0.00,Wunderground v.1.15,2013-02-16 10:40:00,
2013-02-16 05:50:00,36.9,34.8,29.94,ENE,75,0.0,0.0,92,0.00,,,0.00,Wunderground v.1.15,2013-02-16 10:50:00,
2013-02-16 05:55:00,36.9,34.8,29.94,ENE,75,0.0,0.0,92,0.00,,,0.00,Wunderground v.1.15,2013-02-16 10:55:00,
2013-02-16 06:00:00,36.9,34.8,29.95,ENE,75,0.0,0.0,92,0.00,,,0.00,Wunderground v.1.15,2013-02-16 11:00:00,
2013-02-16 06:05:00,36.9,34.8,29.95,ENE,75,0.0,0.0,92,0.00,,,0.00,Wunderground v.1.15,2013-02-16 11:05:00,
2013-02-16 06:15:00,36.8,34.7,29.95,ENE,75,0.0,0.0,92,0.00,,,0.00,Wunderground v.1.15,2013-02-16 11:15:00,
2013-02-16 06:25:00,36.8,34.7,29.94,ENE,75,0.0,0.0,92,0.00,,,0.00,Wunderground v.1.15,2013-02-16 11:25:00,
2013-02-16 06:30:00,36.6,34.5,29.94,ENE,75,0.0,0.0,92,0.00,,,0.00,Wunderground v.1.15,2013-02-16 11:30:00,
2013-02-16 06:40:00,36.6,34.5,29.94,ENE,75,0.0,0.0,92,0.00,,,0.00,Wunderground v.1.15,2013-02-16 11:40:00,
2013-02-16 06:45:00,36.6,34.5,29.94,ENE,75,0.0,0.0,92,0.00,,,0.00,Wunderground v.1.15,2013-02-16 11:45:00,
2013-02-16 06:55:00,36.5,34.4,29.94,ENE,76,0.0,0.0,92,0.00,,,0.00,Wunderground v.1.15,2013-02-16 11:55:00,
2013-02-16 07:00:00,36.4,34.3,29.94,ENE,75,0.0,0.0,92,0.00,,,0.00,Wunderground v.1.15,2013-02-16 12:00:00,
2013-02-16 07:05:00,36.4,34.3,29.94,ENE,75,0.0,0.0,92,0.00,,,0.00,Wunderground v.1.15,2013-02-16 12:05:00,
2013-02-16 07:15:00,36.3,34.5,29.94,ENE,76,0.0,0.0,93,0.00,,,0.00,Wunderground v.1.15,2013-02-16 12:15:00,
2013-02-16 07:20:00,36.2,34.4,29.94,ENE,75,0.0,0.0,93,0.00,,,0.00,Wunderground v.1.15,2013-02-16 12:20:00,
2013-02-16 07:30:00,36.2,34.4,29.93,ENE,76,0.0,0.0,93,0.00,,,0.00,Wunderground v.1.15,2013-02-16 12:30:00,
2013-02-16 07:40:00,36.1,34.3,29.93,ENE,76,0.0,0.0,93,0.00,,,0.00,Wunderground v.1.15,2013-02-16 12:40:00,
2013-02-16 07:45:00,36.2,34.4,29.93,ENE,75,0.0,0.0,93,0.00,,,0.00,Wunderground v.1.15,2013-02-16 12:45:00,
2013-02-16 07:55:00,36.3,34.5,29.93,ENE,75,0.0,0.0,93,0.00,,,0.00,Wunderground v.1.15,2013-02-16 12:55:00,
2013-02-16 08:00:00,36.4,34.6,29.93,ENE,75,0.0,0.0,93,0.00,,,0.00,Wunderground v.1.15,2013-02-16 13:00:00,
2013-02-16 08:05:00,36.5,34.9,29.93,ENE,75,0.0,0.0,94,0.00,,,0.00,Wunderground v.1.15,2013-02-16 13:05:00,
2013-02-16 08:15:00,36.6,34.8,29.93,ENE,76,0.0,0.0,93,0.00,,,0.00,Wunderground v.1.15,2013-02-16 13:15:00,
2013-02-16 08:20:00,36.7,35.1,29.93,ENE,77,0.0,0.0,94,0.00,,,0.00,Wunderground v.1.15,2013-02-16 13:20:00,
2013-02-16 08:30:00,36.8,35.0,29.93,ENE,75,0.0,0.0,93,0.00,,,0.00,Wunderground v.1.15,2013-02-16 13:30:00,
2013-02-16 08:35:00,36.9,35.1,29.93,ENE,75,0.0,0.0,93,0.00,,,0.00,Wunderground v.1.15,2013-02-16 13:35:00,
2013-02-16 08:45:00,37.1,35.3,29.93,ENE,76,0.0,0.0,93,0.00,,,0.00,Wunderground v.1.15,2013-02-16 13:45:00,
2013-02-16 08:55:00,37.4,35.0,29.93,ENE,76,0.0,0.0,91,0.00,,,0.00,Wunderground v.1.15,2013-02-16 13:55:00,
2013-02-16 09:00:00,37.5,35.1,29.93,ENE,75,0.0,0.0,91,0.00,,,0.00,Wunderground v.1.15,2013-02-16 14:00:00,
2013-02-16 09:05:00,37.7,35.3,29.92,ENE,76,0.0,0.0,91,0.00,,,0.00,Wunderground v.1.15,2013-02-16 14:05:00,
2013-02-16 09:15:00,38.0,35.0,29.92,ENE,76,0.0,0.0,89,0.00,,,0.00,Wunderground v.1.15,2013-02-16 14:15:00,
2013-02-16 09:20:00,38.2,34.7,29.92,ENE,75,0.0,0.0,87,0.00,,,0.00,Wunderground v.1.15,2013-02-16 14:20:00,
2013-02-16 09:30:00,38.4,34.6,29.92,ENE,76,0.0,0.0,86,0.00,,,0.00,Wunderground v.1.15,2013-02-16 14:30:00,
2013-02-16 09:35:00,38.4,34.3,29.92,ENE,75,0.0,0.0,85,0.00,,,0.00,Wunderground v.1.15,2013-02-16 14:35:00,
2013-02-16 09:45:00,38.6,34.2,29.92,ENE,76,0.0,0.0,84,0.00,,,0.00,Wunderground v.1.15,2013-02-16 14:45:00,
2013-02-16 09:55:00,38.7,34.3,29.92,ENE,75,0.0,1.0,84,0.00,,,0.00,Wunderground v.1.15,2013-02-16 14:55:00,
2013-02-16 10:00:00,38.8,34.4,29.92,ENE,75,0.0,0.0,84,0.00,,,0.00,Wunderground v.1.15,2013-02-16 15:00:00,
2013-02-16 10:05:00,38.9,33.9,29.92,ENE,75,0.0,0.0,82,0.00,,,0.00,Wunderground v.1.15,2013-02-16 15:05:00,
2013-02-16 10:15:00,38.9,33.6,29.92,ENE,76,0.0,0.0,81,0.00,,,0.00,Wunderground v.1.15,2013-02-16 15:15:00,
2013-02-16 10:20:00,39.1,32.2,29.92,ENE,75,0.0,0.0,76,0.00,,,0.00,Wunderground v.1.15,2013-02-16 15:20:00,
2013-02-16 10:30:00,39.2,30.2,29.91,NE,50,0.0,0.0,70,0.00,,,0.00,Wunderground v.1.15,2013-02-16 15:30:00,
2013-02-16 10:35:00,39.3,30.7,29.91,NE,51,0.0,0.0,71,0.00,,,0.00,Wunderground v.1.15,2013-02-16 15:35:00,
2013-02-16 10:45:00,39.4,30.8,29.91,ENE,66,0.0,1.0,71,0.00,,,0.00,Wunderground v.1.15,2013-02-16 15:45:00,
2013-02-16 10:50:00,39.5,31.2,29.91,ENE,65,0.0,0.0,72,0.00,,,0.00,Wunderground v.1.15,2013-02-16 15:50:00,
2013-02-16 11:00:00,39.3,30.0,29.91,ENE,66,0.0,1.0,69,0.00,,,0.00,Wunderground v.1.15,2013-02-16 16:00:00,
2013-02-16 11:05:00,39.0,29.7,29.91,ENE,66,0.0,1.0,69,0.00,,,0.00,Wunderground v.1.15,2013-02-16 16:05:00,
2013-02-16 11:15:00,38.7,29.4,29.90,NNW,337,1.0,2.0,69,0.00,,,0.00,Wunderground v.1.15,2013-02-16 16:15:00,
2013-02-16 11:20:00,38.7,29.0,29.90,North,354,0.0,1.0,68,0.00,,,0.00,Wunderground v.1.15,2013-02-16 16:20:00,
2013-02-16 11:25:00,38.7,29.0,29.90,North,354,0.0,1.0,68,0.00,,,0.00,Wunderground v.1.15,2013-02-16 16:25:00,
2013-02-16 11:35:00,38.8,28.4,29.89,North,354,0.0,1.0,66,0.00,,,0.00,Wunderground v.1.15,2013-02-16 16:35:00,
2013-02-16 11:45:00,39.1,27.9,29.89,NW,326,0.0,2.0,64,0.00,,,0.00,Wunderground v.1.15,2013-02-16 16:45:00,
2013-02-16 11:55:00,39.5,28.3,29.88,NNW,333,1.0,3.0,64,0.00,,,0.00,Wunderground v.1.15,2013-02-16 16:55:00,
2013-02-16 12:00:00,39.8,28.2,29.88,West,269,1.0,5.0,63,0.00,,,0.00,Wunderground v.1.15,2013-02-16 17:00:00,
2013-02-16 12:05:00,40.1,28.5,29.88,WNW,299,1.0,5.0,63,0.00,,,0.00,Wunderground v.1.15,2013-02-16 17:05:00,
2013-02-16 12:15:00,40.0,28.4,29.89,ESE,109,1.0,1.0,63,0.00,,,0.00,Wunderground v.1.15,2013-02-16 17:15:00,
2013-02-16 12:20:00,39.8,27.0,29.89,ESE,108,0.0,0.0,60,0.00,,,0.00,Wunderground v.1.15,2013-02-16 17:20:00,
2013-02-16 12:25:00,39.7,26.5,29.89,ESE,109,0.0,0.0,59,0.00,,,0.00,Wunderground v.1.15,2013-02-16 17:25:00,
2013-02-16 12:35:00,39.9,27.1,29.88,ESE,108,0.0,1.0,60,0.00,,,0.00,Wunderground v.1.15,2013-02-16 17:35:00,
2013-02-16 12:40:00,39.8,26.6,29.87,NNE,22,0.0,0.0,59,0.00,,,0.00,Wunderground v.1.15,2013-02-16 17:40:00,
2013-02-16 12:50:00,39.8,26.2,29.86,NNE,23,0.0,0.0,58,0.00,,,0.00,Wunderground v.1.15,2013-02-16 17:50:00,
2013-02-16 13:00:00,40.0,26.4,29.86,NNE,22,0.0,0.0,58,0.00,,,0.00,Wunderground v.1.15,2013-02-16 18:00:00,
2013-02-16 13:05:00,40.1,26.9,29.86,NNE,23,0.0,0.0,59,0.00,,,0.00,Wunderground v.1.15,2013-02-16 18:05:00,
2013-02-16 13:15:00,40.2,29.4,29.85,NNE,23,0.0,0.0,65,0.00,,,0.00,Wunderground v.1.15,2013-02-16 18:15:00,
2013-02-16 13:20:00,40.2,27.8,29.85,NNE,23,0.0,0.0,61,0.00,,,0.00,Wunderground v.1.15,2013-02-16 18:20:00,
2013-02-16 13:25:00,40.2,26.2,29.85,WNW,299,0.0,0.0,57,0.00,,,0.00,Wunderground v.1.15,2013-02-16 18:25:00,
2013-02-16 13:35:00,40.2,27.0,29.85,WNW,301,0.0,1.0,59,0.00,,,0.00,Wunderground v.1.15,2013-02-16 18:35:00,
2013-02-16 13:40:00,40.1,26.1,29.84,NNW,330,1.0,2.0,57,0.00,,,0.00,Wunderground v.1.15,2013-02-16 18:40:00,
2013-02-16 13:50:00,40.1,26.9,29.84,NNE,29,0.0,0.0,59,0.00,,,0.00,Wunderground v.1.15,2013-02-16 18:50:00,
2013-02-16 14:00:00,39.9,26.7,29.84,North,9,1.0,1.0,59,0.00,,,0.00,Wunderground v.1.15,2013-02-16 19:00:00,
2013-02-16 14:05:00,40.0,26.0,29.84,North,8,0.0,1.0,57,0.00,,,0.00,Wunderground v.1.15,2013-02-16 19:05:00,
2013-02-16 14:15:00,40.1,25.2,29.83,North,8,1.0,1.0,55,0.00,,,0.00,Wunderground v.1.15,2013-02-16 19:15:00,
2013-02-16 14:25:00,40.1,26.9,29.82,North,9,0.0,0.0,59,0.00,,,0.00,Wunderground v.1.15,2013-02-16 19:25:00,
2013-02-16 14:35:00,39.8,26.6,29.82,NNE,16,1.0,1.0,59,0.00,,,0.00,Wunderground v.1.15,2013-02-16 19:35:00,
2013-02-16 14:40:00,39.6,27.6,29.83,North,359,2.0,2.0,62,0.00,,,0.00,Wunderground v.1.15,2013-02-16 19:40:00,
2013-02-16 14:50:00,39.3,27.4,29.83,NNW,346,2.0,3.0,62,0.00,,,0.00,Wunderground v.1.15,2013-02-16 19:50:00,
2013-02-16 14:55:00,39.2,27.3,29.83,NNW,332,2.0,3.0,62,0.00,,,0.00,Wunderground v.1.15,2013-02-16 19:55:00,
2013-02-16 15:05:00,39.0,26.7,29.81,NNE,13,2.0,2.0,61,0.00,,,0.00,Wunderground v.1.15,2013-02-16 20:05:00,
2013-02-16 15:15:00,39.0,26.3,29.82,NW,320,1.0,1.0,60,0.00,,,0.00,Wunderground v.1.15,2013-02-16 20:15:00,
2013-02-16 15:25:00,39.1,26.8,29.83,NNE,12,1.0,2.0,61,0.00,,,0.00,Wunderground v.1.15,2013-02-16 20:25:00,
2013-02-16 15:35:00,39.2,26.9,29.83,North,9,1.0,1.0,61,0.00,,,0.00,Wunderground v.1.15,2013-02-16 20:35:00,
2013-02-16 15:40:00,39.0,26.3,29.83,West,272,1.0,1.0,60,0.00,,,0.00,Wunderground v.1.15,2013-02-16 20:40:00,
2013-02-16 15:50:00,38.6,25.9,29.82,NNE,23,1.0,1.0,60,0.00,,,0.00,Wunderground v.1.15,2013-02-16 20:50:00,
2013-02-16 16:00:00,38.4,26.1,29.82,NNE,23,1.0,1.0,61,0.00,,,0.00,Wunderground v.1.15,2013-02-16 21:00:00,
2013-02-16 16:05:00,38.4,25.7,29.82,NNE,22,0.0,2.0,60,0.00,,,0.00,Wunderground v.1.15,2013-02-16 21:05:00,
2013-02-16 16:15:00,38.3,25.6,29.83,NNE,16,1.0,2.0,60,0.00,,,0.00,Wunderground v.1.15,2013-02-16 21:15:00,
2013-02-16 16:25:00,38.1,25.4,29.83,North,354,1.0,2.0,60,0.00,,,0.00,Wunderground v.1.15,2013-02-16 21:25:00,
2013-02-16 16:35:00,37.9,26.0,29.83,NNE,26,1.0,1.0,62,0.00,,,0.00,Wunderground v.1.15,2013-02-16 21:35:00,
2013-02-16 16:40:00,37.7,24.6,29.83,North,8,1.0,1.0,59,0.00,,,0.00,Wunderground v.1.15,2013-02-16 21:40:00,
2013-02-16 16:50:00,37.3,24.7,29.83,NNE,15,1.0,2.0,60,0.00,,,0.00,Wunderground v.1.15,2013-02-16 21:50:00,
2013-02-16 16:55:00,37.2,24.6,29.84,NNE,16,1.0,2.0,60,0.00,,,0.00,Wunderground v.1.15,2013-02-16 21:55:00,
2013-02-16 17:05:00,37.0,24.0,29.83,NNE,19,1.0,3.0,59,0.00,,,0.00,Wunderground v.1.15,2013-02-16 22:05:00,
2013-02-16 17:15:00,36.8,23.8,29.83,NE,35,1.0,3.0,59,0.00,,,0.00,Wunderground v.1.15,2013-02-16 22:15:00,
2013-02-16 17:20:00,36.7,24.1,29.83,NE,34,1.0,1.0,60,0.00,,,0.00,Wunderground v.1.15,2013-02-16 22:20:00,
2013-02-16 17:25:00,36.5,23.9,29.83,NE,35,1.0,2.0,60,0.00,,,0.00,Wunderground v.1.15,2013-02-16 22:25:00,
2013-02-16 17:35:00,36.4,23.4,29.84,NNW,348,1.0,1.0,59,0.00,,,0.00,Wunderground v.1.15,2013-02-16 22:35:00,
2013-02-16 17:45:00,36.3,23.3,29.84,North,359,2.0,4.0,59,0.00,,,0.00,Wunderground v.1.15,2013-02-16 22:45:00,
2013-02-16 17:55:00,36.0,23.0,29.84,NNE,16,1.0,2.0,59,0.00,,,0.00,Wunderground v.1.15,2013-02-16 22:55:00,
2013-02-16 18:00:00,35.9,22.5,29.84,NNW,343,1.0,1.0,58,0.00,,,0.00,Wunderground v.1.15,2013-02-16 23:00:00,
2013-02-16 18:05:00,35.8,22.9,29.84,NNE,18,1.0,1.0,59,0.00,,,0.00,Wunderground v.1.15,2013-02-16 23:05:00,
2013-02-16 18:15:00,35.6,22.7,29.85,North,354,2.0,2.0,59,0.00,,,0.00,Wunderground v.1.15,2013-02-16 23:15:00,
2013-02-16 18:20:00,35.4,22.5,29.84,NNE,21,2.0,2.0,59,0.00,,,0.00,Wunderground v.1.15,2013-02-16 23:20:00,
2013-02-16 18:30:00,35.2,22.7,29.85,NNE,23,2.0,2.0,60,0.00,,,0.00,Wunderground v.1.15,2013-02-16 23:30:00,
2013-02-16 18:35:00,35.1,22.2,29.85,NW,322,2.0,3.0,59,0.00,,,0.00,Wunderground v.1.15,2013-02-16 23:35:00,
2013-02-16 18:45:00,35.0,22.1,29.85,North,10,2.0,4.0,59,0.00,,,0.00,Wunderground v.1.15,2013-02-16 23:45:00,
2013-02-16 18:50:00,34.9,22.0,29.86,NNW,340,2.0,2.0,59,0.00,,,0.00,Wunderground v.1.15,2013-02-16 23:50:00,
2013-02-16 19:00:00,34.6,21.3,29.86,North,4,0.0,2.0,58,0.00,,,0.00,Wunderground v.1.15,2013-02-17 00:00:00,
2013-02-16 19:05:00,34.5,21.2,29.86,North,359,1.0,2.0,58,0.00,,,0.00,Wunderground v.1.15,2013-02-17 00:05:00,
2013-02-16 19:15:00,34.4,20.7,29.86,NNW,343,1.0,1.0,57,0.00,,,0.00,Wunderground v.1.15,2013-02-17 00:15:00,
2013-02-16 19:20:00,34.4,19.9,29.86,NNW,338,2.0,3.0,55,0.00,,,0.00,Wunderground v.1.15,2013-02-17 00:20:00,
2013-02-16 19:25:00,34.4,20.7,29.86,North,8,2.0,3.0,57,0.00,,,0.00,Wunderground v.1.15,2013-02-17 00:25:00,
2013-02-16 19:35:00,34.3,20.6,29.86,North,359,2.0,4.0,57,0.00,,,0.00,Wunderground v.1.15,2013-02-17 00:35:00,
2013-02-16 19:40:00,34.0,19.9,29.86,NNW,337,2.0,5.0,56,0.00,,,0.00,Wunderground v.1.15,2013-02-17 00:40:00,
2013-02-16 19:50:00,33.8,20.2,29.86,NNE,29,3.0,3.0,57,0.00,,,0.00,Wunderground v.1.15,2013-02-17 00:50:00,
2013-02-16 20:00:00,33.4,18.9,29.86,North,8,2.0,2.0,55,0.00,,,0.00,Wunderground v.1.15,2013-02-17 01:00:00,
2013-02-16 20:05:00,33.2,18.8,29.86,North,359,2.0,2.0,55,0.00,,,0.00,Wunderground v.1.15,2013-02-17 01:05:00,
2013-02-16 20:15:00,32.9,18.5,29.85,North,354,2.0,4.0,55,0.00,,,0.00,Wunderground v.1.15,2013-02-17 01:15:00,
2013-02-16 20:25:00,32.7,18.7,29.86,NNW,335,2.0,2.0,56,0.00,,,0.00,Wunderground v.1.15,2013-02-17 01:25:00,
2013-02-16 20:35:00,32.3,18.3,29.86,NNW,337,1.0,4.0,56,0.00,,,0.00,Wunderground v.1.15,2013-02-17 01:35:00,
2013-02-16 20:40:00,32.2,18.2,29.86,NNW,332,2.0,2.0,56,0.00,,,0.00,Wunderground v.1.15,2013-02-17 01:40:00,
2013-02-16 20:50:00,32.1,18.2,29.86,NNW,343,1.0,1.0,56,0.00,,,0.00,Wunderground v.1.15,2013-02-17 01:50:00,
2013-02-16 20:55:00,32.0,17.6,29.86,NW,322,2.0,2.0,55,0.00,,,0.00,Wunderground v.1.15,2013-02-17 01:55:00,
2013-02-16 21:05:00,31.9,18.4,29.86,NNW,335,1.0,2.0,57,0.00,,,0.00,Wunderground v.1.15,2013-02-17 02:05:00,
2013-02-16 21:15:00,31.5,18.4,29.86,NNW,337,1.0,1.0,58,0.00,,,0.00,Wunderground v.1.15,2013-02-17 02:15:00,
2013-02-16 21:25:00,31.3,17.8,29.87,North,9,1.0,4.0,57,0.00,,,0.00,Wunderground v.1.15,2013-02-17 02:25:00,
2013-02-16 21:30:00,31.4,17.9,29.86,NNW,338,2.0,3.0,57,0.00,,,0.00,Wunderground v.1.15,2013-02-17 02:30:00,
2013-02-16 21:40:00,31.6,18.1,29.86,North,354,3.0,3.0,57,0.00,,,0.00,Wunderground v.1.15,2013-02-17 02:40:00,
2013-02-16 21:50:00,31.5,17.6,29.86,NNW,341,1.0,1.0,56,0.00,,,0.00,Wunderground v.1.15,2013-02-17 02:50:00,
2013-02-16 21:55:00,31.3,17.8,29.86,North,349,1.0,3.0,57,0.00,,,0.00,Wunderground v.1.15,2013-02-17 02:55:00,
2013-02-16 22:05:00,31.2,17.3,29.86,North,8,1.0,2.0,56,0.00,,,0.00,Wunderground v.1.15,2013-02-17 03:05:00,
2013-02-16 22:15:00,31.0,17.1,29.86,NNW,332,1.0,2.0,56,0.00,,,0.00,Wunderground v.1.15,2013-02-17 03:15:00,
2013-02-16 22:25:00,31.0,17.1,29.86,NNW,341,1.0,1.0,56,0.00,,,0.00,Wunderground v.1.15,2013-02-17 03:25:00,
2013-02-16 22:30:00,30.9,17.0,29.86,North,354,1.0,1.0,56,0.00,,,0.00,Wunderground v.1.15,2013-02-17 03:30:00,
2013-02-16 22:40:00,30.9,17.4,29.86,NNW,347,1.0,1.0,57,0.00,,,0.00,Wunderground v.1.15,2013-02-17 03:40:00,
2013-02-16 22:45:00,30.8,17.3,29.86,NNW,347,0.0,1.0,57,0.00,,,0.00,Wunderground v.1.15,2013-02-17 03:45:00,
2013-02-16 22:55:00,30.5,17.5,29.86,NNW,348,0.0,0.0,58,0.00,,,0.00,Wunderground v.1.15,2013-02-17 03:55:00,
2013-02-16 23:00:00,30.3,17.3,29.86,North,359,1.0,1.0,58,0.00,,,0.00,Wunderground v.1.15,2013-02-17 04:00:00,
2013-02-16 23:05:00,30.3,17.3,29.86,North,354,1.0,1.0,58,0.00,,,0.00,Wunderground v.1.15,2013-02-17 04:05:00,
2013-02-16 23:15:00,30.2,16.8,29.86,North,4,1.0,1.0,57,0.00,,,0.00,Wunderground v.1.15,2013-02-17 04:15:00,
2013-02-16 23:25:00,30.1,17.1,29.86,North,359,0.0,1.0,58,0.00,,,0.00,Wunderground v.1.15,2013-02-17 04:25:00,
2013-02-16 23:30:00,30.0,17.0,29.86,NNW,328,1.0,1.0,58,0.00,,,0.00,Wunderground v.1.15,2013-02-17 04:30:00,
2013-02-16 23:35:00,29.9,16.9,29.86,NNW,328,1.0,1.0,58,0.00,,,0.00,Wunderground v.1.15,2013-02-17 04:35:00,
2013-02-16 23:45:00,29.7,17.1,29.86,NW,323,0.0,0.0,59,0.00,,,0.00,Wunderground v.1.15,2013-02-17 04:45:00,
2013-02-16 23:55:00,29.6,17.0,29.86,NNW,343,1.0,1.0,59,0.00,,,0.00,Wunderground v.1.15,2013-02-17 04:55:00,